Time,TemperatureF,DewpointF,PressureIn,WindDirection,WindDirectionDegrees,WindSpeedMPH,WindSpeedGustMPH,Humidity,HourlyPrecipIn,Conditions,Clouds,dailyrainin,SoftwareType,DateUTC
2013-05-10 00:01:00,59.0,57.9,30.18,SSW,202,0.0,0.0,96,0.00,,CLR,0.00,VWS V14.01,2013-05-10 04:01:00,
2013-05-10 00:02:00,59.0,57.9,30.18,SSW,202,0.0,0.0,96,0.00,,CLR,0.00,VWS V14.01,2013-05-10 04:02:00,
2013-05-10 00:07:00,59.0,57.9,30.15,SSW,202,0.0,0.0,96,0.00,,CLR,0.00,VWS V14.01,2013-05-10 04:07:00,
2013-05-10 00:12:00,59.0,57.9,30.15,SSW,202,0.0,0.0,96,0.00,,CLR,0.00,VWS V14.01,2013-05-10 04:12:00,
2013-05-10 00:18:00,58.1,57.5,30.15,SSW,202,0.0,0.0,98,0.00,,CLR,0.00,VWS V14.01,2013-05-10 04:18:00,
2013-05-10 00:23:00,58.1,57.5,30.15,SSW,202,0.0,0.0,98,0.00,,CLR,0.00,VWS V14.01,2013-05-10 04:23:00,
2013-05-10 00:28:00,58.1,57.5,30.15,SSW,202,0.0,0.0,98,0.00,,CLR,0.00,VWS V14.01,2013-05-10 04:28:00,
2013-05-10 00:33:00,58.1,57.5,30.15,SSW,202,0.0,0.0,98,0.00,,CLR,0.00,VWS V14.01,2013-05-10 04:33:00,
2013-05-10 00:38:00,57.7,57.2,30.18,SSW,202,0.0,0.0,98,0.00,,CLR,0.00,VWS V14.01,2013-05-10 04:38:00,
2013-05-10 00:43:00,57.7,57.2,30.18,SSW,202,0.0,0.0,98,0.00,,CLR,0.00,VWS V14.01,2013-05-10 04:43:00,
2013-05-10 00:48:00,57.7,57.2,30.18,SSW,202,0.0,0.0,98,0.00,,CLR,0.00,VWS V14.01,2013-05-10 04:48:00,
2013-05-10 00:53:00,57.7,57.2,30.15,SSW,202,0.0,0.0,98,0.00,,CLR,0.00,VWS V14.01,2013-05-10 04:53:00,
2013-05-10 00:58:00,57.7,57.2,30.15,SSW,202,0.0,0.0,98,0.00,,CLR,0.00,VWS V14.01,2013-05-10 04:58:00,
2013-05-10 01:03:00,57.7,57.2,30.15,SSW,202,0.0,0.0,98,0.00,,CLR,0.00,VWS V14.01,2013-05-10 05:03:00,
2013-05-10 01:08:00,57.7,57.2,30.15,SSW,202,0.0,0.0,98,0.00,,CLR,0.00,VWS V14.01,2013-05-10 05:08:00,
2013-05-10 01:13:00,57.0,56.5,30.15,SSW,202,0.0,0.0,98,0.00,,CLR,0.00,VWS V14.01,2013-05-10 05:13:00,
2013-05-10 01:18:00,57.0,56.5,30.15,SSW,202,0.0,0.0,98,0.00,,CLR,0.00,VWS V14.01,2013-05-10 05:18:00,
2013-05-10 01:23:00,57.0,56.5,30.15,SSW,202,0.0,0.0,98,0.00,,CLR,0.00,VWS V14.01,2013-05-10 05:23:00,
2013-05-10 01:28:00,57.0,56.5,30.15,SSW,202,0.0,0.0,98,0.00,,CLR,0.00,VWS V14.01,2013-05-10 05:28:00,
2013-05-10 01:33:00,56.7,56.1,30.15,SSW,202,0.0,0.0,98,0.00,,CLR,0.00,VWS V14.01,2013-05-10 05:33:00,
2013-05-10 01:38:00,56.7,56.1,30.15,SSW,202,0.0,0.0,98,0.00,,CLR,0.00,VWS V14.01,2013-05-10 05:38:00,
2013-05-10 01:43:00,56.7,56.1,30.15,SSW,202,0.0,0.0,98,0.00,,CLR,0.00,VWS V14.01,2013-05-10 05:43:00,
2013-05-10 01:48:00,56.7,56.1,30.15,SSW,202,0.0,0.0,98,0.00,,CLR,0.00,VWS V14.01,2013-05-10 05:48:00,
2013-05-10 01:53:00,56.5,55.9,30.15,SSW,202,0.0,0.0,98,0.00,,CLR,0.00,VWS V14.01,2013-05-10 05:53:00,
2013-05-10 01:58:00,56.7,56.1,30.15,SSW,202,0.0,0.0,98,0.00,,CLR,0.00,VWS V14.01,2013-05-10 05:58:00,
2013-05-10 02:03:00,56.5,55.9,30.15,SSW,202,0.0,0.0,98,0.00,,CLR,0.00,VWS V14.01,2013-05-10 06:03:00,
2013-05-10 02:08:00,56.3,55.8,30.15,SSW,202,0.0,0.0,98,0.00,,CLR,0.00,VWS V14.01,2013-05-10 06:08:00,
2013-05-10 02:13:00,56.5,55.9,30.15,SSW,202,0.0,0.0,98,0.00,,CLR,0.00,VWS V14.01,2013-05-10 06:13:00,
2013-05-10 02:18:00,56.3,55.8,30.15,SSW,202,0.0,0.0,98,0.00,,CLR,0.00,VWS V14.01,2013-05-10 06:18:00,
2013-05-10 02:23:00,55.9,55.4,30.15,SSW,202,0.0,0.0,98,0.00,,CLR,0.00,VWS V14.01,2013-05-10 06:23:00,
2013-05-10 02:28:00,56.1,55.6,30.15,SSW,202,0.0,0.0,98,0.00,,CLR,0.00,VWS V14.01,2013-05-10 06:28:00,
2013-05-10 02:33:00,56.1,55.6,30.15,SSW,202,0.0,0.0,98,0.00,,CLR,0.00,VWS V14.01,2013-05-10 06:33:00,
2013-05-10 02:38:00,56.1,55.6,30.15,SSW,202,0.0,0.0,98,0.00,,CLR,0.00,VWS V14.01,2013-05-10 06:38:00,
2013-05-10 02:43:00,55.9,55.4,30.15,SSW,202,0.0,0.0,98,0.00,,CLR,0.00,VWS V14.01,2013-05-10 06:43:00,
2013-05-10 02:48:00,55.9,55.4,30.15,SSW,202,0.0,0.0,98,0.00,,CLR,0.00,VWS V14.01,2013-05-10 06:48:00,
2013-05-10 02:53:00,56.3,55.8,30.15,SSW,202,0.0,0.0,98,0.00,,CLR,0.00,VWS V14.01,2013-05-10 06:53:00,
2013-05-10 02:58:00,56.5,55.9,30.15,SSW,202,0.0,0.0,98,0.00,,CLR,0.00,VWS V14.01,2013-05-10 06:58:00,
2013-05-10 03:03:00,56.5,55.9,30.15,SSW,202,0.0,0.0,98,0.00,,,0.00,VWS V14.01,2013-05-10 07:03:00,
2013-05-10 03:08:00,56.5,55.9,30.15,SSW,202,0.0,0.0,98,0.00,,,0.00,VWS V14.01,2013-05-10 07:08:00,
2013-05-10 03:13:00,56.1,55.6,30.15,SSW,202,0.0,0.0,98,0.00,,,0.00,VWS V14.01,2013-05-10 07:13:00,
2013-05-10 03:18:00,55.9,55.4,30.15,SSW,202,0.0,0.0,98,0.00,,,0.00,VWS V14.01,2013-05-10 07:18:00,
2013-05-10 03:23:00,55.9,55.4,30.15,SSW,202,0.0,0.0,98,0.00,,CLR,0.00,VWS V14.01,2013-05-10 07:23:00,
2013-05-10 03:28:00,55.8,55.2,30.15,SSW,202,0.0,0.0,98,0.00,,CLR,0.00,VWS V14.01,2013-05-10 07:28:00,
2013-05-10 03:33:00,55.8,55.2,30.15,SSW,202,0.0,0.0,98,0.00,,CLR,0.00,VWS V14.01,2013-05-10 07:33:00,
2013-05-10 17:22:00,77.4,47.6,28.79,WSW,248,3.1,3.1,35,0.00,,,0.00,VWS V14.01,2013-05-10 21:22:00,
2013-05-10 17:27:00,77.5,47.8,28.79,SSW,202,3.6,3.6,35,0.00,,,0.00,VWS V14.01,2013-05-10 21:27:00,
2013-05-10 17:32:00,77.2,48.9,30.06,ENE,68,2.2,2.2,37,0.00,,,0.00,VWS V14.01,2013-05-10 21:32:00,
2013-05-10 17:37:00,77.0,48.8,30.06,NNW,338,2.7,2.7,37,0.00,,,0.00,VWS V14.01,2013-05-10 21:37:00,
2013-05-10 17:42:00,77.0,48.0,30.06,SW,225,4.0,4.0,36,0.00,,CLR,0.00,VWS V14.01,2013-05-10 21:42:00,
2013-05-10 17:47:00,77.0,48.0,30.06,SSW,202,2.7,4.0,36,0.00,,CLR,0.00,VWS V14.01,2013-05-10 21:47:00,
2013-05-10 17:52:00,77.0,48.0,30.06,SSE,158,2.7,2.7,36,0.00,,CLR,0.00,VWS V14.01,2013-05-10 21:52:00,
2013-05-10 17:57:00,77.0,48.0,30.06,South,180,2.2,2.2,36,0.00,,CLR,0.00,VWS V14.01,2013-05-10 21:57:00,
2013-05-10 17:58:00,77.0,48.0,30.06,SSW,202,3.6,3.6,36,0.00,,CLR,0.00,VWS V14.01,2013-05-10 21:58:00,
2013-05-10 17:59:00,77.0,48.0,30.06,SSW,202,0.0,3.6,36,0.00,,CLR,0.00,VWS V14.01,2013-05-10 21:59:00,
2013-05-10 18:04:00,76.1,50.7,30.06,SSW,202,2.2,2.7,41,0.00,,CLR,0.00,VWS V14.01,2013-05-10 22:04:00,
2013-05-10 18:09:00,76.1,50.7,30.06,SSW,202,2.7,4.9,41,0.00,,CLR,0.00,VWS V14.01,2013-05-10 22:09:00,
2013-05-10 18:14:00,75.9,50.5,30.06,SSE,158,2.7,2.7,41,0.00,,CLR,0.00,VWS V14.01,2013-05-10 22:14:00,
2013-05-10 18:19:00,75.9,50.5,30.06,South,180,2.2,2.2,41,0.00,,CLR,0.00,VWS V14.01,2013-05-10 22:19:00,
2013-05-10 18:24:00,75.6,50.2,30.06,SSW,202,2.7,2.7,41,0.00,,CLR,0.00,VWS V14.01,2013-05-10 22:24:00,
2013-05-10 18:29:00,75.6,50.2,30.06,South,180,3.1,3.6,41,0.00,,CLR,0.00,VWS V14.01,2013-05-10 22:29:00,
2013-05-10 18:34:00,75.6,50.2,30.06,NNW,338,3.6,3.6,41,0.00,,CLR,0.00,VWS V14.01,2013-05-10 22:34:00,
2013-05-10 18:39:00,75.6,50.2,30.06,NNW,338,3.6,3.6,41,0.00,,CLR,0.00,VWS V14.01,2013-05-10 22:39:00,
2013-05-10 18:44:00,75.6,50.2,30.06,NNW,338,3.6,3.6,41,0.00,,CLR,0.00,VWS V14.01,2013-05-10 22:44:00,
2013-05-10 18:49:00,75.6,50.2,30.06,South,180,3.6,3.6,41,0.00,,CLR,0.00,VWS V14.01,2013-05-10 22:49:00,
2013-05-10 18:54:00,75.6,50.2,30.06,South,180,3.6,3.6,41,0.00,,CLR,0.00,VWS V14.01,2013-05-10 22:54:00,
2013-05-10 18:59:00,75.6,50.2,30.06,South,180,3.6,3.6,41,0.00,,CLR,0.00,VWS V14.01,2013-05-10 22:59:00,
2013-05-10 19:04:00,75.6,50.2,30.06,South,180,3.6,3.6,41,0.00,,CLR,0.00,VWS V14.01,2013-05-10 23:04:00,
2013-05-10 19:09:00,75.6,50.2,30.06,South,180,3.6,3.6,41,0.00,,CLR,0.00,VWS V14.01,2013-05-10 23:09:00,
2013-05-10 19:14:00,75.6,50.2,30.06,South,180,3.6,3.6,41,0.00,,CLR,0.00,VWS V14.01,2013-05-10 23:14:00,
2013-05-10 19:19:00,75.6,50.2,30.06,South,180,3.6,3.6,41,0.00,,CLR,0.00,VWS V14.01,2013-05-10 23:19:00,
2013-05-10 19:24:00,73.8,49.9,30.06,South,180,3.6,3.6,43,0.00,,CLR,0.00,VWS V14.01,2013-05-10 23:24:00,
2013-05-10 19:29:00,73.8,49.9,30.06,South,180,3.6,3.6,43,0.00,,CLR,0.00,VWS V14.01,2013-05-10 23:29:00,
2013-05-10 19:34:00,73.8,49.9,30.06,South,180,3.6,3.6,43,0.00,,CLR,0.00,VWS V14.01,2013-05-10 23:34:00,
2013-05-10 19:39:00,73.8,49.9,30.06,South,180,3.6,3.6,43,0.00,,CLR,0.00,VWS V14.01,2013-05-10 23:39:00,
2013-05-10 19:44:00,73.8,49.9,30.06,South,180,3.6,3.6,43,0.00,,SCT090,0.00,VWS V14.01,2013-05-10 23:44:00,
2013-05-10 19:49:00,73.8,49.9,30.06,South,180,3.6,3.6,43,0.00,,SCT090,0.00,VWS V14.01,2013-05-10 23:49:00,
2013-05-10 19:54:00,73.8,49.9,30.06,South,180,3.6,3.6,43,0.00,,SCT090,0.00,VWS V14.01,2013-05-10 23:54:00,
2013-05-10 19:59:00,73.8,49.9,30.06,South,180,3.6,3.6,43,0.00,,SCT090,0.00,VWS V14.01,2013-05-10 23:59:00,
2013-05-10 20:04:00,73.8,49.9,30.06,South,180,3.6,3.6,43,0.00,,SCT120,0.00,VWS V14.01,2013-05-11 00:04:00,
2013-05-10 20:09:00,73.8,49.9,30.06,South,180,3.6,3.6,43,0.00,,SCT120,0.00,VWS V14.01,2013-05-11 00:09:00,
2013-05-10 20:14:00,73.8,49.9,30.06,South,180,3.6,3.6,43,0.00,,SCT120,0.00,VWS V14.01,2013-05-11 00:14:00,
2013-05-10 20:19:00,73.8,49.9,30.06,South,180,3.6,3.6,43,0.00,,SCT120,0.00,VWS V14.01,2013-05-11 00:19:00,
2013-05-10 20:24:00,73.8,49.9,30.06,South,180,3.6,3.6,43,0.00,,SCT120,0.00,VWS V14.01,2013-05-11 00:24:00,
2013-05-10 20:29:00,73.8,49.9,30.06,South,180,3.6,3.6,43,0.00,,SCT120,0.00,VWS V14.01,2013-05-11 00:29:00,
2013-05-10 20:34:00,73.8,49.9,30.06,South,180,3.6,3.6,43,0.00,,SCT120,0.00,VWS V14.01,2013-05-11 00:34:00,
2013-05-10 20:39:00,73.8,49.9,30.06,South,180,3.6,3.6,43,0.00,,SCT120,0.00,VWS V14.01,2013-05-11 00:39:00,
2013-05-10 20:44:00,73.8,49.9,30.06,South,180,3.6,3.6,43,0.00,,BKN110,0.00,VWS V14.01,2013-05-11 00:44:00,
2013-05-10 20:49:00,73.8,49.9,30.06,South,180,3.6,3.6,43,0.00,,BKN110,0.00,VWS V14.01,2013-05-11 00:49:00,
2013-05-10 20:54:00,73.8,49.9,30.06,South,180,3.6,3.6,43,0.00,,BKN110,0.00,VWS V14.01,2013-05-11 00:54:00,
2013-05-10 20:59:00,73.8,49.9,30.06,South,180,3.6,3.6,43,0.00,,BKN110,0.00,VWS V14.01,2013-05-11 00:59:00,
2013-05-10 21:04:00,73.8,49.9,30.06,South,180,3.6,3.6,43,0.00,,OVC110,0.00,VWS V14.01,2013-05-11 01:04:00,
2013-05-10 21:09:00,71.2,51.7,30.06,South,180,3.6,3.6,50,0.00,,OVC110,0.00,VWS V14.01,2013-05-11 01:09:00,
2013-05-10 21:14:00,71.1,52.0,30.06,South,180,3.6,3.6,51,0.00,,OVC110,0.00,VWS V14.01,2013-05-11 01:14:00,
2013-05-10 21:19:00,71.1,52.0,30.06,South,180,3.6,3.6,51,0.00,,OVC110,0.00,VWS V14.01,2013-05-11 01:19:00,
2013-05-10 21:24:00,71.1,52.0,30.06,South,180,3.6,3.6,51,0.00,,OVC100,0.00,VWS V14.01,2013-05-11 01:24:00,
2013-05-10 21:29:00,71.1,52.0,30.06,South,180,3.6,3.6,51,0.00,,OVC100,0.00,VWS V14.01,2013-05-11 01:29:00,
2013-05-10 21:34:00,71.1,52.0,30.06,SW,225,0.0,0.0,51,0.00,,OVC100,0.00,VWS V14.01,2013-05-11 01:34:00,
2013-05-10 21:39:00,71.1,52.0,30.06,SW,225,0.0,0.0,51,0.00,,OVC100,0.00,VWS V14.01,2013-05-11 01:39:00,
2013-05-10 21:44:00,71.1,52.0,30.06,SW,225,0.0,0.0,51,0.00,,BKN100,0.00,VWS V14.01,2013-05-11 01:44:00,
2013-05-10 21:49:00,71.1,52.0,30.06,SW,225,0.0,0.0,51,0.00,,BKN100,0.00,VWS V14.01,2013-05-11 01:49:00,
2013-05-10 21:54:00,71.1,52.0,30.06,SW,225,0.0,0.0,51,0.00,,BKN100,0.00,VWS V14.01,2013-05-11 01:54:00,
2013-05-10 21:59:00,71.1,52.0,30.06,SW,225,0.0,0.0,51,0.00,,BKN100,0.00,VWS V14.01,2013-05-11 01:59:00,
2013-05-10 22:04:00,71.1,52.0,30.06,SW,225,0.0,0.0,51,0.00,,SCT120,0.00,VWS V14.01,2013-05-11 02:04:00,
2013-05-10 22:09:00,69.1,53.7,30.06,SW,225,0.0,0.0,58,0.00,,SCT120,0.00,VWS V14.01,2013-05-11 02:09:00,
2013-05-10 22:14:00,69.1,53.7,30.06,SW,225,0.0,0.0,58,0.00,,SCT120,0.00,VWS V14.01,2013-05-11 02:14:00,
2013-05-10 22:19:00,69.1,53.7,30.06,SW,225,0.0,0.0,58,0.00,,SCT120,0.00,VWS V14.01,2013-05-11 02:19:00,
2013-05-10 22:24:00,69.1,53.7,30.06,SW,225,0.0,0.0,58,0.00,,CLR,0.00,VWS V14.01,2013-05-11 02:24:00,
2013-05-10 22:29:00,69.1,53.7,30.06,SW,225,0.0,0.0,58,0.00,,CLR,0.00,VWS V14.01,2013-05-11 02:29:00,
2013-05-10 22:34:00,69.1,53.7,30.06,SW,225,0.0,0.0,58,0.00,,CLR,0.00,VWS V14.01,2013-05-11 02:34:00,
2013-05-10 22:39:00,69.1,53.7,30.06,SW,225,0.0,0.0,58,0.00,,CLR,0.00,VWS V14.01,2013-05-11 02:39:00,
2013-05-10 22:44:00,69.1,53.7,30.06,SW,225,0.0,0.0,58,0.00,,SCT120,0.00,VWS V14.01,2013-05-11 02:44:00,
2013-05-10 22:49:00,69.1,53.7,30.06,SW,225,0.0,0.0,58,0.00,,SCT120,0.00,VWS V14.01,2013-05-11 02:49:00,
2013-05-10 22:54:00,69.1,53.7,30.06,SW,225,0.0,0.0,58,0.00,,SCT120,0.00,VWS V14.01,2013-05-11 02:54:00,
2013-05-10 22:59:00,69.1,53.7,30.06,SW,225,0.0,0.0,58,0.00,,SCT120,0.00,VWS V14.01,2013-05-11 02:59:00,
2013-05-10 23:04:00,69.1,53.7,30.06,SW,225,0.0,0.0,58,0.00,,OVC120,0.00,VWS V14.01,2013-05-11 03:04:00,
2013-05-10 23:09:00,69.1,53.7,30.06,SW,225,0.0,0.0,58,0.00,,OVC120,0.00,VWS V14.01,2013-05-11 03:09:00,
2013-05-10 23:14:00,69.1,53.7,30.06,SW,225,0.0,0.0,58,0.00,,OVC120,0.00,VWS V14.01,2013-05-11 03:14:00,
2013-05-10 23:19:00,69.1,53.7,30.06,SW,225,0.0,0.0,58,0.00,,OVC120,0.00,VWS V14.01,2013-05-11 03:19:00,
2013-05-10 23:24:00,69.1,53.7,30.06,SW,225,0.0,0.0,58,0.00,,OVC120,0.00,VWS V14.01,2013-05-11 03:24:00,
2013-05-10 23:29:00,69.1,53.7,30.06,SW,225,0.0,0.0,58,0.00,,OVC120,0.00,VWS V14.01,2013-05-11 03:29:00,
2013-05-10 23:34:00,69.1,53.7,30.06,SW,225,0.0,0.0,58,0.00,,OVC120,0.00,VWS V14.01,2013-05-11 03:34:00,
2013-05-10 23:39:00,69.1,53.7,30.06,SW,225,0.0,0.0,58,0.00,,OVC120,0.00,VWS V14.01,2013-05-11 03:39:00,
2013-05-10 23:44:00,69.1,53.7,30.06,SW,225,0.0,0.0,58,0.00,,BKN110,0.00,VWS V14.01,2013-05-11 03:44:00,
2013-05-10 23:49:00,69.1,53.7,30.06,SW,225,0.0,0.0,58,0.00,,BKN110,0.00,VWS V14.01,2013-05-11 03:49:00,
2013-05-10 23:54:00,69.1,53.7,30.06,SW,225,0.0,0.0,58,0.00,,BKN110,0.00,VWS V14.01,2013-05-11 03:54:00,
2013-05-10 23:59:00,69.1,53.7,30.06,SW,225,0.0,0.0,58,0.00,,BKN110,0.00,VWS V14.01,2013-05-11 03:59:00,